• Em Portugal
  • Lista de países
  • Para 7 dias
  • Temperatura da água
  • Mapas de satélite
  • Mapa do tempo
  • Widgets de tempo
  • user-avatar
    Iniciar Sessão

    Previsão horária em Misrata

    Hoje, 18 Dezembro, Segunda-feira

    Tempo Temperatura Precipitação Vento Pressão Humidade
    00:00 +15°C° 0 mm 4 m/s 765 mmHg 65%
    01:00 +15°C° 0 mm 5 m/s 765 mmHg 64%
    02:00 +15°C° 0 mm 4 m/s 765 mmHg 63%
    03:00 +15°C° 0 mm 4 m/s 764 mmHg 62%
    04:00 +15°C° 0 mm 4 m/s 764 mmHg 61%
    05:00 +14°C° 0 mm 4 m/s 764 mmHg 61%
    06:00 +14°C° 0 mm 4 m/s 765 mmHg 62%
    07:00 +14°C° 0 mm 4 m/s 765 mmHg 62%
    08:00 +14°C° 0,1 mm 5 m/s 765 mmHg 63%
    09:00 +14°C° 0,1 mm 5 m/s 765 mmHg 63%
    10:00 +14°C° 0,1 mm 5 m/s 765 mmHg 63%
    11:00 +14°C° 0,1 mm 5 m/s 765 mmHg 64%
    12:00 +14°C° 0,1 mm 6 m/s 765 mmHg 64%
    13:00 +14°C° 0,1 mm 6 m/s 765 mmHg 64%
    14:00 +14°C° 0 mm 6 m/s 764 mmHg 62%
    15:00 +14°C° 0 mm 6 m/s 764 mmHg 60%
    16:00 +14°C° 0 mm 5 m/s 764 mmHg 57%
    17:00 +14°C° 0 mm 5 m/s 764 mmHg 56%
    18:00 +14°C° 0 mm 5 m/s 764 mmHg 55%
    19:00 +14°C° 0 mm 4 m/s 764 mmHg 54%
    20:00 +14°C° 0 mm 4 m/s 764 mmHg 55%
    21:00 +13°C° 0 mm 4 m/s 764 mmHg 57%
    22:00 +13°C° 0 mm 3 m/s 764 mmHg 59%
    23:00 +13°C° 0 mm 3 m/s 764 mmHg 61%

    Amanhã, 19 Dezembro, Terça-feira

    Tempo Temperatura Precipitação Vento Pressão Humidade
    00:00 +12°C° 0 mm 3 m/s 764 mmHg 64%
    01:00 +12°C° 0 mm 3 m/s 764 mmHg 66%
    02:00 +12°C° 0,1 mm 3 m/s 764 mmHg 68%
    03:00 +12°C° 0,1 mm 3 m/s 764 mmHg 70%
    04:00 +12°C° 0,1 mm 3 m/s 764 mmHg 72%
    05:00 +12°C° 0,4 mm 3 m/s 764 mmHg 75%
    06:00 +12°C° 0,4 mm 3 m/s 764 mmHg 77%
    07:00 +12°C° 0,4 mm 3 m/s 764 mmHg 80%
    08:00 +12°C° 1 mm 3 m/s 764 mmHg 81%
    09:00 +12°C° 1 mm 4 m/s 765 mmHg 83%
    10:00 +12°C° 1 mm 4 m/s 765 mmHg 84%
    11:00 +12°C° 1,1 mm 4 m/s 765 mmHg 84%
    12:00 +13°C° 1,1 mm 4 m/s 764 mmHg 83%
    13:00 +13°C° 1,1 mm 5 m/s 764 mmHg 82%
    14:00 +13°C° 0,9 mm 5 m/s 763 mmHg 83%
    15:00 +13°C° 0,9 mm 5 m/s 763 mmHg 83%
    16:00 +13°C° 0,9 mm 6 m/s 763 mmHg 84%
    17:00 +12°C° 1 mm 7 m/s 763 mmHg 84%
    18:00 +12°C° 1 mm 7 m/s 763 mmHg 84%
    19:00 +12°C° 1 mm 8 m/s 763 mmHg 85%
    20:00 +12°C° 2,1 mm 8 m/s 763 mmHg 85%
    21:00 +11°C° 2,1 mm 8 m/s 764 mmHg 85%
    22:00 +11°C° 2,1 mm 8 m/s 764 mmHg 85%
    23:00 +11°C° 1,7 mm 8 m/s 764 mmHg 84%

    Depois de amanhã, 20 Dezembro, Quarta-feira

    Tempo Temperatura Precipitação Vento Pressão Humidade
    00:00 +11°C° 1,7 mm 7 m/s 763 mmHg 84%
    01:00 +11°C° 1,7 mm 6 m/s 763 mmHg 83%
    02:00 +11°C° 0,4 mm 7 m/s 763 mmHg 82%
    03:00 +11°C° 0,4 mm 7 m/s 762 mmHg 81%
    04:00 +12°C° 0,4 mm 7 m/s 762 mmHg 80%
    05:00 +12°C° 0,3 mm 7 m/s 762 mmHg 82%
    06:00 +12°C° 0,3 mm 8 m/s 762 mmHg 84%
    07:00 +12°C° 0,3 mm 8 m/s 763 mmHg 85%
    08:00 +12°C° 0,5 mm 9 m/s 763 mmHg 84%
    09:00 +12°C° 0,5 mm 9 m/s 763 mmHg 83%
    10:00 +13°C° 0,5 mm 10 m/s 763 mmHg 81%
    11:00 +13°C° 0,4 mm 10 m/s 763 mmHg 80%
    12:00 +13°C° 0,4 mm 10 m/s 763 mmHg 78%
    13:00 +14°C° 0,4 mm 10 m/s 762 mmHg 77%
    14:00 +14°C° 0,3 mm 10 m/s 762 mmHg 77%
    15:00 +14°C° 0,3 mm 10 m/s 762 mmHg 76%
    16:00 +14°C° 0,3 mm 10 m/s 762 mmHg 76%
    17:00 +14°C° 0,3 mm 10 m/s 762 mmHg 76%
    18:00 +13°C° 0,3 mm 9 m/s 762 mmHg 77%
    19:00 +13°C° 0,3 mm 9 m/s 763 mmHg 77%
    20:00 +13°C° 0,4 mm 9 m/s 763 mmHg 79%
    21:00 +13°C° 0,4 mm 8 m/s 763 mmHg 81%
    22:00 +13°C° 0,4 mm 8 m/s 763 mmHg 82%
    23:00 +14°C° 0,6 mm 7 m/s 763 mmHg 83%

    21 Dezembro, Quinta-feira

    Tempo Temperatura Precipitação Vento Pressão Humidade
    00:00 +14°C° 0,6 mm 7 m/s 762 mmHg 83%
    01:00 +14°C° 0,6 mm 6 m/s 762 mmHg 83%
    02:00 +14°C° 0,7 mm 6 m/s 762 mmHg 84%
    03:00 +14°C° 0,7 mm 6 m/s 762 mmHg 86%
    04:00 +14°C° 0,7 mm 6 m/s 761 mmHg 87%
    05:00 +13°C° 0,9 mm 5 m/s 761 mmHg 88%
    06:00 +13°C° 0,9 mm 5 m/s 762 mmHg 89%
    07:00 +13°C° 0,9 mm 5 m/s 762 mmHg 90%
    08:00 +14°C° 1,1 mm 5 m/s 762 mmHg 86%
    09:00 +14°C° 1,1 mm 6 m/s 762 mmHg 82%
    10:00 +15°C° 1,1 mm 7 m/s 762 mmHg 78%
    11:00 +15°C° 0,2 mm 8 m/s 762 mmHg 75%
    12:00 +16°C° 0,2 mm 10 m/s 762 mmHg 73%
    13:00 +16°C° 0,2 mm 11 m/s 761 mmHg 71%
    14:00 +15°C° 0,1 mm 12 m/s 761 mmHg 72%
    15:00 +14°C° 0,1 mm 13 m/s 761 mmHg 72%
    16:00 +14°C° 0,1 mm 13 m/s 761 mmHg 72%
    17:00 +13°C° 0,2 mm 13 m/s 761 mmHg 72%
    18:00 +13°C° 0,2 mm 12 m/s 762 mmHg 72%
    19:00 +13°C° 0,2 mm 12 m/s 762 mmHg 72%
    20:00 +13°C° 0,3 mm 12 m/s 762 mmHg 73%
    21:00 +13°C° 0,3 mm 11 m/s 762 mmHg 75%
    22:00 +13°C° 0,3 mm 11 m/s 763 mmHg 77%
    23:00 +13°C° 0,5 mm 11 m/s 762 mmHg 78%

    22 Dezembro, Sexta-feira

    Tempo Temperatura Precipitação Vento Pressão Humidade
    00:00 +13°C° 0,5 mm 12 m/s 762 mmHg 79%
    01:00 +13°C° 0,5 mm 12 m/s 762 mmHg 79%
    02:00 +13°C° 0,2 mm 12 m/s 762 mmHg 79%
    03:00 +13°C° 0,2 mm 13 m/s 761 mmHg 78%
    04:00 +13°C° 0,2 mm 13 m/s 761 mmHg 77%
    05:00 +13°C° 1,1 mm 13 m/s 761 mmHg 78%
    06:00 +13°C° 1,1 mm 13 m/s 761 mmHg 80%
    07:00 +13°C° 1,1 mm 13 m/s 762 mmHg 81%
    08:00 +13°C° 2,7 mm 13 m/s 762 mmHg 82%
    09:00 +13°C° 2,7 mm 13 m/s 762 mmHg 83%
    10:00 +14°C° 2,7 mm 13 m/s 762 mmHg 85%
    11:00 +13°C° 4,8 mm 13 m/s 761 mmHg 85%
    12:00 +13°C° 4,8 mm 14 m/s 761 mmHg 85%
    13:00 +13°C° 4,8 mm 14 m/s 761 mmHg 86%
    14:00 +13°C° 5 mm 14 m/s 760 mmHg 86%
    15:00 +13°C° 5 mm 14 m/s 760 mmHg 86%
    16:00 +13°C° 5 mm 14 m/s 760 mmHg 86%
    17:00 +13°C° 6,5 mm 14 m/s 760 mmHg 86%
    18:00 +13°C° 6,5 mm 15 m/s 761 mmHg 86%
    19:00 +13°C° 6,5 mm 15 m/s 761 mmHg 85%
    20:00 +13°C° 5,6 mm 15 m/s 761 mmHg 85%
    21:00 +11°C° 5,6 mm 15 m/s 761 mmHg 85%
    22:00 +11°C° 5,6 mm 15 m/s 761 mmHg 84%
    23:00 +11°C° 3,6 mm 15 m/s 761 mmHg 83%

    23 Dezembro, Sábado

    Tempo Temperatura Precipitação Vento Pressão Humidade
    00:00 +11°C° 3,6 mm 15 m/s 760 mmHg 82%
    01:00 +11°C° 3,6 mm 15 m/s 760 mmHg 81%
    02:00 +12°C° 1,7 mm 14 m/s 760 mmHg 79%
    03:00 +12°C° 1,7 mm 14 m/s 760 mmHg 76%
    04:00 +12°C° 1,7 mm 13 m/s 760 mmHg 74%
    05:00 +12°C° 0,6 mm 13 m/s 760 mmHg 73%
    06:00 +12°C° 0,6 mm 13 m/s 760 mmHg 71%
    07:00 +13°C° 0,6 mm 12 m/s 761 mmHg 70%
    08:00 +13°C° 0,2 mm 12 m/s 761 mmHg 68%
    09:00 +14°C° 0,2 mm 12 m/s 762 mmHg 67%
    10:00 +14°C° 0,2 mm 12 m/s 762 mmHg 66%
    11:00 +14°C° 0,3 mm 12 m/s 762 mmHg 67%
    12:00 +13°C° 0,3 mm 12 m/s 762 mmHg 68%
    13:00 +13°C° 0,3 mm 12 m/s 762 mmHg 69%
    14:00 +13°C° 0,4 mm 11 m/s 762 mmHg 68%
    15:00 +13°C° 0,4 mm 11 m/s 762 mmHg 67%
    16:00 +14°C° 0,4 mm 11 m/s 762 mmHg 65%
    17:00 +13°C° 0,3 mm 10 m/s 763 mmHg 67%
    18:00 +13°C° 0,3 mm 10 m/s 763 mmHg 69%
    19:00 +13°C° 0,3 mm 9 m/s 764 mmHg 71%
    20:00 +12°C° 0,1 mm 9 m/s 764 mmHg 72%
    21:00 +12°C° 0,1 mm 8 m/s 764 mmHg 73%
    22:00 +12°C° 0,1 mm 7 m/s 765 mmHg 75%
    23:00 +12°C° 0 mm 7 m/s 765 mmHg 75%
    Mostrar mais